Tracking 20942 objects as of 10-Jul-2020
HD Live streaming from Space Station
objects crossing your sky now

SL-3 R/B

Track SL-3 R/B now!
10-day predictions


NORAD ID: 13121
Int'l Code: 1982-027B
Perigee: 538.2 km
Apogee: 555.0 km
Inclination: 81.2 °
Period: 95.4 minutes
Semi major axis: 6917 km
RCS: 5.6899 m2 (large)
Launch date: March 31, 1982
Source: Commonwealth of Independent States (former USSR) (CIS)
Launch site: PLESETSK MISSILE AND SPACE COMPLEX (PKMTR)

Note: This is a ROCKET BODY
aabbcc
Your satellite tracking list
Your tracking list is empty




NASA's NSSDC Master Catalog

Two Line Element Set (TLE):
1 13121U 82027B   20192.50340035 +.00000973 +00000-0 +60171-4 0  9999
2 13121 081.1692 272.6547 0012170 040.5305 319.6823 15.08922260085468
Source of the keplerian elements: AFSPC